Location: Newark
(51.2625°N, 13.3939°E)
Time: 13:28:12
(UTC+00:00)

Transit 2A Rocket - Pass Details

Date: 27 November 2019
Orbit: 594 x 909 km, 66.7° (Epoch: 12 December)

Event Time Altitude Azimuth Distance (km) Brightness Sun altitude
Exits shadow 04:07:34 19° 193° (SSW) 1,514 6.4 -23.4°
Drops below altitude 10° 04:09:09 10° 180° (S) 2,047 7.3 -23.2°
Sets 04:11:42 0° 171° (S) 3,001 8.3 -22.8°
